Notices

What's New in latest Release from April 7th, 2021:

- Updated Glossary, including Speed of Maximum Gust, and Total Hourly Precipitation

- Updated national and regional climate services offices contacts and prices information

- Addition of station inventory lists for 1981-2010, 1971-2000, and 1961-1990 Normals.

If you haven't already, please take our survey and provide feedback about our website: https://eccc.sondage-survey.ca/f/LanguageSelection.aspx?s=442ca660-fcf1-47c0-95a9-59707d6fd709

Hourly Data Report for January 31, 2021

EDMUNDSTON
NEW BRUNSWICK
Current Station Operator: ECCC - MSC

47°25'00.000" N
68°19'28.040" W
154.20 m
8101303
71590
ERM

Download Data

Hourly Data (January 2021)
Hourly Data Report for January 31, 2021
TIME
LST
Temp Definition
°C
Dew Point Definition
°C
Rel Hum Definition
%
Precip. Amount Definition
mm

Wind Dir Definition
10's deg

Wind Spd Definition
km/h
Visibility Definition
km
Stn Press Definition
kPa
Hmdx Definition


Wind Chill Definition


Weather Definition


00:00 -21.2 -23.3 83 0.0 29 4   100.39   -25 LegendNANA
01:00 -22.7 -25.0 81 0.0 32 5   100.40   -27 LegendNANA
02:00 -23.7 -26.1 81 0.0 33 5   100.44   -28 LegendNANA
03:00 -24.3 -26.7 80 0.0 33 4   100.49   -28 LegendNANA
04:00 -24.2 -26.9 79 0.0 33 4   100.51   -28 LegendNANA
05:00 -24.9 -27.6 78 0.0 31 2   100.55   -27 LegendNANA
06:00 -24.5 -27.1 79 0.0 32 4   100.58   -28 LegendNANA
07:00 -23.4 -25.8 80 0.0 33 5   100.60   -28 LegendNANA
08:00 -23.8 -26.4 79 0.0 33 3   100.64   -27 LegendNANA
09:00 -21.5 -23.9 81 0.2 29 3   100.68   -24 LegendNANA
10:00 -14.7 -17.0 82 0.0 29 4   100.72   -18 LegendNANA
11:00 -13.4 -16.9 75 0.0 34 11   100.73   -20 LegendNANA
12:00 -11.3 -16.1 67 0.0 34 12   100.71   -17 LegendNANA
13:00 -9.9 -15.5 64 0.0 30 8   100.66   -14 LegendNANA
14:00 -9.1 -15.1 61 0.0 28 11   100.60   -15 LegendNANA
15:00 -8.1 -14.6 60 0.0 28 9   100.58   -13 LegendNANA
16:00 -7.9 -14.6 59 0.0 28 9   100.61   -12 LegendNANA
17:00 -8.4 -14.6 61 0.0 29 5   100.64   -11 LegendNANA
18:00 -10.5 -15.2 69 0.0 30 5   100.67   -14 LegendNANA
19:00 -14.2 -16.6 82 0.0 32 4   100.70   -17 LegendNANA
20:00 -16.0 -17.8 86 0.0 35 4   100.72   -19 LegendNANA
21:00 -16.4 -18.2 86 0.0 32 3   100.75   -19 LegendNANA
22:00 -18.0 -19.6 87 0.0 28 4   100.76   -21 LegendNANA
23:00 -18.7 -20.5 86 0.0 30 2   100.77   -20 LegendNANA

Notes on Data Quality.

Legend

  • E = Estimated
  • M = Missing
  • NA = Not Available*
  • [empty] = Indicates an unobserved value
Date modified: